Hourly Data Report for May 01, 2021

WIARTON A
ONTARIO
Current Station Operator: NAVCAN

44°44'39.000" N
81°06'31.000" W
221.90 m
6119499
71633
YVV

Download Data

Hourly Data (May 2021)
Hourly Data Report for May 1, 2021
TIME
LST
Temp Definition
°C
Dew Point Definition
°C
Rel Hum Definition
%
Precip. Amount Definition
mm

Wind Dir Definition
10's deg

Wind Spd Definition
km/h
Visibility Definition
km
Stn Press Definition
kPa
Hmdx Definition


Wind Chill Definition


Weather Definition


00:00 2.9 -0.6 78   31 8 24.1 99.07     LegendNANA
01:00 2.4 0.0 85   32 5 24.1 99.09     Clear
02:00 2.0 -0.2 86   31 7 24.1 99.11     LegendNANA
03:00 -0.6 -2.3 88   8 5 24.1 99.15   -2 LegendNANA
04:00 -0.4 -1.3 93   8 8 24.1 99.16   -3 Clear
05:00 -1.0 -2.8 88   13 10 24.1 99.14   -5 LegendNANA
06:00 -0.8 -2.3 89   13 12 24.1 99.11   -5 LegendNANA
07:00 1.9 -1.9 76   15 14 24.1 99.09     Mainly Clear
08:00 4.4 -2.4 61   17 15 24.1 99.03     LegendNANA
09:00 6.8 -3.5 48   21 19 24.1 99.01     LegendNANA
10:00 7.9 -0.4 56   24 10 24.1 98.93     Mostly Cloudy
11:00 7.1 0.8 64   24 21 24.1 98.78     LegendNANA
12:00 9.3 1.6 58   23 17 24.1 98.57     LegendNANA
13:00 11.0 -3.3 36   20 23 24.1 98.40     Mostly Cloudy
14:00 10.8 -3.9 35   21 21 24.1 98.23     LegendNANA
15:00 11.1 -3.9 35   20 21 24.1 98.07     LegendNANA
16:00 12.2 -3.7 33   21 22 24.1 97.87     Mostly Cloudy
17:00 10.3 -0.6 47   29 7 12.9 98.03     Rain
18:00 8.9 4.2 72   17 19 16.1 97.77     Rain Showers
19:00 10.0 1.4 55   19 22 24.1 97.69     Mainly Clear
20:00 9.7 0.4 52   19 22 24.1 97.56     LegendNANA
21:00 10.0 1.5 56   19 28 24.1 97.51     LegendNANA
22:00 10.8 2.7 57   19 26 24.1 97.51     Clear
23:00 11.9 3.0 54   29 8 24.1 97.62     LegendNANA

Notes on Data Quality.

Legend

  • E = Estimated
  • M = Missing
  • NA = Not Available*
  • [empty] = Indicates an unobserved value
Date modified: